Volver al catálogo

CZ-6A DEB

ActivoPO
NORAD 60759·DEBRIS·🇨🇳 China

Lanzado Aug 6, 2024 desde Taiyuan Satellite Launch Center

Loading…

Próximos Pases (próximas 24 horas)

TLE

ActualizadoSource: Space-Track

Época: Sep 14, 2026, 10:48 UTC

1 60759U 24140EJ  26257.45005637  .00000976  00000-0  44393-3 0  9998
2 60759  89.0007 265.2654 0051196 253.1651 106.3921 14.20348065108709

Sigue CZ-6A DEB en tiempo real con AllMySat

Download on the App Store